Powrót do katalogu

STARLINK-30575

AktywnyŁącznośćVLEO
NORAD 58052·PAYLOAD·🇺🇸 United States

Wystrzelony Oct 13, 2023 z Cape Canaveral Space Force Station

Loading…

Następne Przeloty (najbliższe 24 godziny)

TLE

ŚwieżeSource: CelesTrak SupGP

Epoka: Sep 14, 2026, 21:27 UTC

1 58052C 23158B   26257.89423611  .00053386  00000+0  19336-2 0  2570
2 58052  43.0039  38.8824 0001434 275.1411  31.9185 15.27552179    19

Śledź STARLINK-30575 w czasie rzeczywistym z AllMySat

Download on the App Store